Wind_Speed
56 53 48 54 61 61 59 57 52 50 45 41 37 33 28 27 25 20 14 6 2 8 8 16 21 20 25 29 33 36 38 40 44 40 37 35 30 30 29 29 27 23 22 23
62 62 63 58 60 60 64 62 57 53 47 41 43 40 35 34 32 27 19 11 5 1 6 12 15 17 19 25 26 34 39 40 44 45 47 42 39 37 34 32 31 28 24 21
80 77 70 67 58 61 66 66 62 58 52 45 46 46 41 37 33 29 22 15 11 8 2 7 11 15 17 20 23 30 33 32 37 40 41 41 42 45 45 41 40 37 30 23
89 84 76 71 65 64 66 70 67 60 59 57 51 51 47 41 36 31 25 21 15 14 5 5 7 10 14 14 19 22 25 25 29 32 35 36 38 41 41 45 44 45 42 32
82 95 90 78 74 67 69 72 68 65 63 60 58 54 48 46 44 35 31 26 23 19 9 9 7 7 10 12 13 17 15 17 22 28 30 31 32 32 37 40 41 45 42 40
71 90 94 87 75 73 72 74 72 69 66 65 62 62 56 51 45 40 35 29 27 22 14 12 10 9 7 9 9 7 8 13 17 18 26 30 29 29 30 31 32 37 38 41
64 83 94 92 82 73 69 74 79 67 70 65 63 60 57 51 48 43 37 33 31 25 18 16 12 11 8 8 6 5 6 10 12 12 13 16 17 19 21 24 25 29 32 33
58 74 93 92 86 79 73 75 82 81 68 63 61 64 60 56 51 49 45 40 35 29 18 20 16 12 11 9 7 4 3 4 5 6 6 9 13 12 12 14 15 17 20 23
48 66 92 95 91 88 82 77 81 84 80 70 62 59 63 56 53 50 50 43 43 32 27 24 24 21 13 11 10 7 2 1 1 3 4 3 5 7 8 9 12 13 16 18
44 64 90 95 91 85 81 77 81 85 82 76 67 62 63 59 55 53 48 47 47 37 35 29 30 26 22 12 12 8 5 3 3 6 5 4 7 5 6 7 7 8 11 13
44 65 88 93 90 86 84 79 82 85 82 76 78 68 64 64 61 57 54 53 49 40 39 31 33 33 29 19 14 14 8 5 3 8 10 11 9 8 6 4 5 5 6 7
44 65 82 87 92 91 85 78 78 82 80 77 78 73 68 67 64 61 54 52 50 45 44 36 34 37 33 28 18 19 14 15 12 10 14 16 15 13 11 9 5 7 4 4
42 65 80 84 86 87 80 76 76 80 81 78 76 78 75 68 63 65 64 57 55 56 50 44 39 34 39 35 30 18 19 18 20 19 17 17 16 18 19 16 15 11 10 6
37 60 76 80 80 82 79 77 75 82 87 89 82 80 76 73 67 65 63 59 56 56 55 50 43 44 44 44 39 26 24 23 26 23 22 25 22 22 22 20 18 17 14 13
36 56 72 76 79 80 79 76 74 80 86 92 89 80 83 78 75 70 66 64 61 60 56 54 46 49 48 45 48 36 30 30 30 27 30 33 29 28 27 26 26 23 23 20
34 50 67 75 77 76 78 79 78 78 84 91 93 86 80 82 79 75 72 68 61 62 63 63 59 56 54 53 54 46 38 35 37 36 38 33 33 38 38 32 28 32 27 26
33 42 60 70 74 74 76 78 79 81 83 88 92 89 89 85 75 68 78 72 66 63 60 62 65 63 56 56 53 50 39 38 39 42 43 39 37 41 45 37 34 40 36 34
39 41 52 65 73 77 78 81 82 82 84 86 89 91 86 90 84 69 76 77 68 72 69 66 64 65 61 59 55 51 39 40 48 48 47 42 35 40 47 47 48 41 42 40
46 45 48 58 69 75 79 81 84 86 85 87 89 92 90 90 87 76 67 66 71 73 78 70 70 68 65 58 54 49 46 49 47 49 45 48 47 50 50 56 56 50 45 41
41 51 51 55 62 70 76 81 83 85 87 90 90 91 95 92 93 81 73 68 66 73 79 85 78 76 69 66 41 51 48 56 58 68 59 57 58 57 58 60 57 55 47 52
40 42 51 59 59 64 74 79 83 86 89 91 93 91 93 96 99 100 81 74 75 71 80 79 76 70 70 68 67 57 51 62 58 49 47 54 55 62 68 69 69 70 63 59
38 41 46 53 63 64 68 75 80 86 90 91 92 95 94 96 99 100 102 97 84 86 83 80 82 78 67 70 70 70 66 64 57 54 48 41 53 62 68 76 71 68 66 70
32 39 44 46 52 60 69 69 76 83 87 89 92 92 94 96 99 101 104 104 101 85 90 90 80 79 72 80 72 78 71 57 61 61 74 62 60 62 73 72 73 73 70 69
31 33 37 42 47 53 59 66 70 73 83 88 89 92 93 96 98 101 104 106 110 99 86 88 86 80 78 85 85 84 84 81 78 73 73 87 84 81 80 81 79 80 82 80
28 30 32 36 40 47 52 58 63 69 75 77 86 90 92 95 98 99 102 108 112 115 105 94 96 86 86 87 93 90 94 89 90 91 86 86 90 92 91 90 87 86 88 92
22 24 27 31 36 40 47 51 57 64 70 75 79 81 89 92 96 100 100 105 111 116 118 119 107 102 98 94 102 105 106 107 99 99 100 97 93 89 89 89 90 89 90 92
Wind_Direction
231 223 218 224 219 215 211 210 211 211 210 211 219 216 209 209 209 207 192 148 69 46 53 50 67 68 70 68 71 75 75 73 71 70 69 69 76 76 71 75 79 87 96 101
233 225 222 220 216 213 212 210 209 209 207 209 217 217 212 211 218 215 188 182 210 313 89 74 67 73 74 80 77 76 76 79 78 75 74 72 71 74 76 77 78 79 89 103
228 224 218 217 213 211 212 210 206 208 197 200 208 214 212 211 213 209 203 206 171 170 191 110 83 81 74 90 88 80 79 77 81 80 77 74 73 70 68 68 69 71 76 88
222 223 218 215 212 210 209 210 208 205 203 201 207 212 215 207 206 211 203 207 181 176 149 142 119 95 92 89 101 92 82 86 85 80 75 71 69 71 69 68 70 64 65 71
216 214 212 211 210 207 206 209 207 205 203 203 206 211 208 209 208 214 208 211 185 194 157 188 173 140 105 103 90 113 95 87 97 97 82 75 72 73 70 72 70 67 64 63
213 209 207 208 205 207 204 204 203 208 207 207 206 212 211 214 211 215 218 213 204 200 190 200 196 173 141 111 95 89 106 82 108 108 89 77 78 77 71 71 70 68 63 64
211 205 204 204 203 205 205 205 204 194 201 199 201 207 213 211 214 212 218 210 209 199 201 209 195 180 170 141 128 89 84 93 112 110 114 84 87 78 75 72 68 70 66 65
212 204 199 200 199 201 204 206 205 197 193 203 205 211 215 217 217 217 216 210 210 200 202 218 197 194 194 173 147 131 88 65 93 91 103 95 88 89 78 67 69 74 61 63
215 204 196 197 197 200 203 205 203 203 204 206 200 208 210 211 214 217 214 209 206 204 215 205 206 208 207 212 182 175 173 124 319 330 10 357 71 61 60 58 71 85 65 66
209 201 195 197 199 201 204 204 204 203 203 202 201 208 209 207 212 214 212 205 206 213 210 204 218 209 211 219 223 200 177 252 256 275 286 301 327 8 34 32 70 54 61 64
207 198 195 195 200 200 204 205 204 204 202 200 203 207 208 210 209 214 214 215 210 217 215 211 210 215 210 214 225 223 217 219 289 278 276 272 269 297 322 348 358 29 71 75
204 195 197 194 199 202 202 205 206 202 202 199 202 206 206 211 211 211 213 214 213 211 215 223 212 212 218 215 214 226 240 232 246 285 282 266 272 275 286 294 313 323 346 31
211 198 197 198 202 204 202 204 205 202 200 198 204 208 208 208 210 216 216 215 221 221 218 222 228 216 215 225 225 223 244 256 248 260 278 277 273 265 278 279 284 282 295 307
213 205 200 202 204 205 204 204 205 203 202 202 207 210 208 209 206 214 218 218 219 221 218 219 223 224 216 224 229 232 235 245 240 253 268 278 269 271 262 267 272 281 279 282
218 209 202 205 208 205 206 208 207 207 205 209 209 211 208 211 211 212 217 219 218 218 223 224 224 222 224 223 226 228 238 248 235 245 264 268 262 265 268 275 265 266 267 267
223 215 208 208 210 208 209 210 210 209 209 209 212 209 213 212 215 216 213 215 220 225 230 234 232 227 232 237 241 237 237 240 238 239 256 254 263 261 259 272 264 265 254 249
231 221 214 211 213 214 211 212 217 213 211 213 211 213 211 213 214 222 217 212 212 218 217 229 232 229 226 232 238 238 239 236 239 245 248 254 259 258 251 259 278 276 248 242
233 226 220 216 214 215 214 212 214 218 216 214 215 215 214 212 214 214 225 222 214 216 215 221 223 224 223 231 233 234 232 236 256 248 244 248 253 255 251 253 270 272 249 245
230 230 226 220 218 219 219 218 215 216 219 218 216 216 216 214 210 213 208 221 223 219 217 220 221 223 227 231 236 246 247 242 242 247 250 254 255 258 256 257 268 271 249 243
240 234 231 226 222 221 222 220 219 219 220 220 219 218 217 215 214 208 205 217 219 218 223 222 224 218 224 227 223 230 253 244 236 246 254 253 256 256 251 258 259 259 260 253
246 237 235 234 228 225 224 223 222 221 224 223 222 220 219 218 217 214 206 208 218 217 219 216 221 219 222 227 229 224 229 239 239 244 254 258 248 249 254 257 257 260 259 262
248 244 237 234 233 230 227 226 225 224 225 226 224 222 221 221 220 219 217 213 212 220 220 223 219 220 219 222 215 218 225 233 242 233 241 236 235 241 246 247 251 255 259 257
254 245 241 237 233 233 232 228 226 227 228 228 227 226 224 222 223 221 220 219 215 216 223 225 222 226 220 217 221 216 217 215 214 221 224 226 230 236 243 241 247 251 245 244
257 252 246 239 236 234 233 233 228 228 230 230 229 229 228 225 223 224 223 222 221 216 215 216 221 220 221 219 220 220 215 214 212 211 221 225 232 238 238 239 242 245 245 242
264 258 254 250 242 237 236 233 233 231 230 231 232 231 230 230 227 225 225 224 223 222 217 216 221 222 222 223 222 221 220 221 222 220 220 223 228 234 237 241 243 243 245 246
277 266 257 249 248 243 238 234 233 232 233 231 231 232 232 231 231 228 226 227 227 226 226 225 222 223 224 223 221 225 224 224 221 223 228 230 229 231 237 241 243 246 248 250
Height
10866 10876 10886 10879 10893 10911 10918 10926 10936 10942 10949 10957 10962 10968 10973 10977 10981 10984 10987 10991 10992 10993 10992 10989 10986 10987 10985 10981 10977 10973 10969 10967 10962 10961 10958 10956 10955 10953 10950 10949 10948 10947 10948 10949
10849 10858 10860 10872 10882 10896 10907 10915 10925 10934 10944 10950 10955 10962 10967 10973 10977 10981 10985 10989 10992 10993 10993 10992 10990 10989 10988 10988 10985 10980 10976 10976 10971 10968 10966 10965 10963 10960 10957 10957 10954 10952 10952 10953
10819 10824 10844 10856 10872 10883 10894 10903 10914 10923 10934 10941 10947 10955 10961 10968 10973 10978 10982 10986 10991 10992 10994 10993 10992 10989 10991 10991 10990 10986 10983 10984 10980 10977 10975 10976 10972 10968 10965 10963 10961 10959 10958 10958
10785 10810 10829 10843 10857 10868 10880 10893 10903 10917 10926 10932 10939 10946 10954 10962 10968 10974 10979 10982 10986 10990 10993 10993 10992 10991 10991 10993 10992 10992 10990 10990 10987 10985 10984 10982 10979 10976 10973 10972 10971 10968 10967 10966
10756 10777 10801 10825 10838 10852 10865 10882 10895 10906 10914 10925 10932 10940 10949 10956 10964 10968 10973 10978 10984 10987 10991 10993 10993 10993 10993 10994 10994 10995 10995 10995 10993 10993 10992 10988 10987 10985 10984 10981 10981 10977 10977 10977
10735 10756 10784 10808 10832 10840 10852 10867 10879 10892 10905 10916 10925 10933 10943 10950 10958 10964 10970 10974 10981 10985 10990 10992 10993 10993 10993 10994 10996 10996 10996 10996 10995 10995 10995 10995 10993 10992 10991 10989 10990 10988 10988 10984
10723 10741 10768 10791 10816 10834 10846 10859 10868 10884 10897 10909 10917 10925 10932 10943 10951 10959 10966 10970 10977 10983 10987 10989 10992 10993 10994 10994 10997 10999 10998 10999 10999 10999 10998 10998 10998 10998 10998 10996 10995 10995 10994 10993
10716 10731 10755 10780 10802 10817 10829 10842 10858 10874 10888 10902 10910 10917 10925 10937 10945 10953 10960 10964 10971 10979 10983 10986 10989 10992 10993 10995 10997 10999 10999 11000 11000 11002 11002 11001 11002 11002 11001 11001 11000 11000 11000 10998
10716 10729 10746 10764 10782 10794 10809 10825 10846 10863 10878 10891 10901 10906 10918 10928 10938 10946 10952 10958 10964 10969 10976 10982 10986 10990 10992 10994 10997 10998 11000 11000 11001 11002 11004 11004 11003 11004 11004 11005 11004 11003 11003 11002
10709 10725 10740 10757 10775 10794 10807 10822 10836 10849 10866 10881 10894 10898 10908 10919 10928 10936 10944 10950 10956 10962 10969 10976 10980 10986 10990 10993 10995 10997 10999 11000 11001 11003 11003 11005 11005 11005 11005 11006 11008 11007 11004 11004
10707 10723 10733 10750 10771 10781 10792 10808 10820 10841 10854 10871 10881 10890 10900 10909 10919 10927 10937 10943 10951 10957 10963 10969 10974 10979 10985 10989 10992 10995 10998 11000 11000 11001 11002 11003 11005 11005 11005 11006 11007 11008 11009 11007
10706 10716 10731 10746 10750 10758 10783 10805 10823 10838 10854 10865 10871 10882 10893 10902 10912 10922 10930 10938 10944 10951 10956 10961 10968 10973 10978 10982 10987 10990 10993 10997 10999 10999 11000 11001 11003 11005 11005 11004 11005 11007 11008 11009
10707 10715 10722 10736 10745 10769 10787 10803 10817 10832 10849 10858 10864 10873 10883 10893 10903 10912 10922 10930 10937 10944 10950 10956 10960 10967 10971 10975 10979 10984 10988 10992 10993 10995 10997 10998 10999 11001 11003 11004 11004 11004 11006 11007
10705 10713 10724 10736 10748 10769 10782 10793 10806 10820 10831 10840 10850 10860 10872 10883 10891 10901 10912 10921 10929 10935 10941 10946 10952 10957 10962 10967 10971 10975 10981 10986 10988 10990 10992 10994 10994 10995 10998 10999 11001 11002 11003 11004
10704 10709 10721 10731 10741 10758 10774 10786 10797 10808 10820 10828 10840 10850 10862 10870 10880 10890 10900 10909 10918 10926 10932 10938 10945 10949 10955 10961 10966 10972 10973 10977 10982 10984 10986 10987 10988 10990 10992 10994 10996 10997 10997 11000
10701 10707 10718 10725 10735 10750 10763 10774 10783 10794 10804 10814 10825 10838 10849 10859 10869 10878 10890 10900 10911 10918 10924 10927 10935 10941 10945 10950 10955 10964 10968 10970 10974 10976 10978 10980 10981 10983 10984 10987 10989 10991 10991 10993
10695 10702 10710 10718 10729 10741 10752 10763 10772 10779 10787 10798 10811 10822 10833 10846 10856 10865 10875 10887 10899 10905 10909 10913 10919 10926 10934 10940 10944 10952 10960 10962 10964 10965 10967 10970 10971 10973 10975 10978 10979 10981 10983 10984
10687 10692 10698 10708 10718 10726 10732 10741 10755 10765 10776 10785 10797 10807 10818 10834 10847 10854 10861 10872 10881 10889 10894 10898 10908 10917 10924 10932 10937 10942 10949 10952 10954 10956 10959 10962 10963 10964 10966 10968 10970 10972 10974 10976
10676 10681 10687 10695 10703 10711 10721 10731 10740 10748 10758 10769 10781 10790 10801 10816 10830 10838 10849 10857 10866 10875 10879 10884 10894 10906 10915 10923 10929 10934 10937 10943 10945 10946 10949 10953 10954 10956 10956 10958 10958 10961 10964 10967
10668 10672 10677 10680 10688 10697 10703 10715 10727 10739 10746 10749 10762 10776 10787 10801 10813 10827 10835 10844 10851 10859 10865 10871 10877 10892 10900 10906 10922 10924 10930 10930 10935 10934 10940 10939 10940 10939 10938 10944 10947 10950 10951 10955
10654 10658 10663 10668 10675 10682 10688 10698 10710 10722 10723 10733 10747 10760 10770 10782 10793 10807 10818 10828 10838 10844 10851 10856 10864 10874 10887 10895 10902 10910 10915 10914 10921 10926 10927 10924 10924 10924 10924 10926 10931 10936 10939 10942
10641 10644 10648 10652 10658 10664 10673 10684 10694 10701 10705 10715 10728 10740 10754 10766 10778 10792 10804 10811 10819 10828 10837 10844 10851 10858 10871 10876 10884 10893 10897 10898 10905 10911 10914 10910 10899 10900 10907 10911 10914 10918 10921 10925
10628 10630 10633 10637 10643 10648 10655 10664 10675 10681 10689 10700 10712 10723 10735 10748 10759 10770 10781 10791 10804 10812 10819 10828 10837 10842 10852 10861 10867 10873 10876 10882 10889 10889 10890 10884 10882 10883 10889 10892 10896 10901 10904 10909
10616 10617 10619 10623 10628 10634 10640 10648 10657 10665 10672 10681 10692 10703 10714 10725 10737 10749 10761 10771 10783 10793 10801 10811 10818 10824 10832 10843 10848 10852 10853 10853 10858 10863 10861 10863 10865 10867 10868 10870 10875 10879 10884 10888
10605 10606 10609 10611 10616 10620 10625 10633 10639 10647 10653 10662 10673 10682 10692 10703 10716 10729 10740 10749 10757 10768 10779 10789 10801 10807 10812 10820 10828 10831 10837 10839 10840 10840 10840 10843 10847 10849 10850 10852 10856 10858 10860 10865
10596 10597 10598 10600 10601 10605 10611 10618 10623 10629 10634 10643 10651 10658 10669 10680 10692 10704 10717 10725 10734 10744 10756 10767 10777 10784 10792 10800 10806 10809 10813 10815 10815 10817 10820 10823 10824 10827 10831 10834 10836 10841 10844 10847